Nashua, NH

1:26 AM EDT on September 25, 2016 (GMT -0400)
Boire

Weather History for KASH - December, 2012

Change the Weather History Date:

Sunday, December 2, 2012

  Actual Average Record
Temperature  
Mean Temperature 38 °F -  
Max Temperature 47 °F 42 °F 62 °F (1998)
Min Temperature 28 °F 23 °F 1 °F (1967)
Degree Days  
Heating Degree Days 28    
Moisture  
Dew Point 32 °F    
Average Humidity 95    
Maximum Humidity 100    
Minimum Humidity 83    
Precipitation  
Precipitation 0.07 in - - ()
Sea Level Pressure  
Sea Level Pressure 30.31 in    
Wind  
Wind Speed 0 mph (SSE)    
Max Wind Speed 6 mph    
Max Gust Speed -    
Visibility 2 miles    
Events Fog , Rain    
Averages and records for this station are not official NWS values.
T = Trace of Precipitation, MM = Missing Value Source: NWS Daily Summary

Daily Weather History Graph

Daily Weather History Graph

Search for Another Location

Airport or City:

Trip Planner

Search our weather history database for the weather conditions in past years. The results will help you decide how hot, cold, wet, or windy it might be!

Date:

Astronomy

Dec. 02, 2012 Rise Set
Actual Time 6:58 AM EST 4:12 PM EST
Civil Twilight 6:26 AM EST 4:44 PM EST
Nautical Twilight 5:51 AM EST 5:19 PM EST
Astronomical Twilight 5:17 AM EST 5:53 PM EST
Moon 7:59 PM EST (12/2) 9:44 AM EST (12/2)
Length of Visible Light 10h 17m
Length of Day
9h 14m
Waning Gibbous, 86% of the Moon is Illuminated
Dec 2
Waning Gibbous
Dec 6
Last Quarter
Dec 13
New
Dec 20
First Quarter
Dec 28
Full

Hourly Weather History & Observations

Time (EST) Temp. Windchill Dew Point Humidity Pressure Visibility Wind Dir Wind Speed Gust Speed Precip Events Conditions
12:51 AM 28.0 °F - 26.1 °F 92% 30.52 in 2.5 mi Calm Calm - N/A   Partly Cloudy
1:03 AM 28.4 °F - 26.6 °F 93% 30.50 in 3.0 mi Calm Calm - N/A   Partly Cloudy
1:51 AM 28.0 °F - 27.1 °F 96% 30.51 in 3.0 mi Calm Calm - N/A   Partly Cloudy
2:24 AM 28.4 °F - 26.6 °F 93% 30.49 in 2.5 mi Calm Calm - 0.00 in   Partly Cloudy
2:51 AM 28.0 °F - 27.1 °F 96% 30.51 in 2.5 mi Calm Calm - 0.00 in   Partly Cloudy
3:51 AM 29.1 °F - 27.1 °F 92% 30.47 in 2.5 mi Calm Calm - N/A   Scattered Clouds
4:06 AM 28.4 °F - 26.6 °F 93% 30.44 in 2.0 mi Calm Calm - N/A   Mostly Cloudy
4:36 AM 28.4 °F - 28.4 °F 100% 30.43 in 2.5 mi Calm Calm - N/A   Scattered Clouds
4:51 AM 29.1 °F - 28.0 °F 96% 30.45 in 3.0 mi Calm Calm - N/A   Partly Cloudy
5:08 AM 28.4 °F - 28.4 °F 100% 30.43 in 2.5 mi Calm Calm - N/A   Partly Cloudy
5:51 AM 29.1 °F - 28.0 °F 96% 30.44 in 1.8 mi Calm Calm - N/A   Mostly Cloudy
5:58 AM 28.4 °F - 28.4 °F 100% 30.42 in 2.0 mi Calm Calm - N/A   Partly Cloudy
6:42 AM 28.4 °F - 28.4 °F 100% 30.41 in 1.5 mi Calm Calm - N/A   Mostly Cloudy
6:51 AM 29.1 °F - 28.0 °F 96% 30.43 in 1.5 mi Calm Calm - N/A   Mostly Cloudy
6:59 AM 28.4 °F - 28.4 °F 100% 30.40 in 1.2 mi Calm Calm - N/A   Mostly Cloudy
7:09 AM 28.4 °F - 28.4 °F 100% 30.40 in 0.8 mi Calm Calm - N/A   Mist
7:21 AM 30.2 °F - 28.4 °F 93% 30.39 in 0.5 mi Calm Calm - N/A Fog Light Freezing Fog
7:51 AM 30.0 °F - 29.1 °F 96% 30.40 in 0.8 mi Calm Calm - N/A   Clear
8:01 AM 30.2 °F - 28.4 °F 93% 30.38 in 0.5 mi Calm Calm - N/A Fog Light Freezing Fog
8:19 AM 30.2 °F - 28.4 °F 93% 30.37 in 0.5 mi Calm Calm - N/A Fog Light Freezing Fog
8:51 AM 31.1 °F - 30.0 °F 96% 30.38 in 0.5 mi Calm Calm - N/A Fog Light Freezing Fog
8:59 AM 30.2 °F - 28.4 °F 93% 30.36 in 0.5 mi Calm Calm - N/A Fog Light Freezing Fog
9:39 AM 30.2 °F - 30.2 °F 100% 30.35 in 0.2 mi Calm Calm - N/A Fog Light Freezing Fog
9:51 AM 32.0 °F - 30.0 °F 92% 30.36 in 0.2 mi Calm Calm - N/A Fog Fog
10:03 AM 32.0 °F - 30.2 °F 93% 30.34 in 0.2 mi Calm Calm - N/A Fog Fog
10:51 AM 32.0 °F - 32.0 °F 100% 30.33 in 0.2 mi Calm Calm - N/A Fog Fog
11:51 AM 34.0 °F - 32.9 °F 96% 30.29 in 0.2 mi Calm Calm - 0.03 in Fog Fog
12:51 PM 36.0 °F - 34.9 °F 96% 30.26 in 0.2 mi Calm Calm - 0.01 in Fog Fog
1:29 PM 37.4 °F - 35.6 °F 93% 30.21 in 0.8 mi Calm Calm - N/A   Mist
1:51 PM 37.9 °F 34.4 °F 36.9 °F 96% 30.21 in 1.8 mi Variable 4.6 mph - N/A   Overcast
1:54 PM 37.4 °F - 37.4 °F 100% 30.19 in 2.0 mi Calm Calm - N/A   Overcast
2:51 PM 38.8 °F - 37.9 °F 97% 30.18 in 2.0 mi Calm Calm - N/A   Overcast
3:24 PM 39.2 °F - 37.4 °F 93% 30.15 in 2.0 mi Calm Calm - N/A   Mostly Cloudy
3:51 PM 39.9 °F - 37.9 °F 93% 30.15 in 2.5 mi Calm Calm - N/A   Overcast
4:51 PM 38.8 °F - 37.9 °F 97% 30.13 in 3.0 mi Calm Calm - 0.00 in   Mostly Cloudy
5:51 PM 37.9 °F - 36.9 °F 96% 30.11 in 2.5 mi Calm Calm - N/A   Mostly Cloudy
6:20 PM 39.2 °F 37.0 °F 39.2 °F 100% 30.07 in 4.0 mi SSE 3.5 mph - N/A   Mostly Cloudy
6:51 PM 41.9 °F - 39.9 °F 93% 30.07 in 6.0 mi Calm Calm - N/A   Mostly Cloudy
7:51 PM 45.9 °F - 41.9 °F 86% 30.05 in 8.0 mi Calm Calm - 0.01 in Rain Light Rain
8:51 PM 46.9 °F - 41.9 °F 83% 30.08 in 10.0 mi Calm Calm - 0.00 in   Clear
9:51 PM 47.8 °F - 43.9 °F 86% 30.05 in 7.0 mi Variable 5.8 mph - 0.01 in Rain Light Rain
10:51 PM 47.8 °F - 43.9 °F 86% 30.05 in 7.0 mi Variable 4.6 mph - 0.01 in Rain Light Rain
11:51 PM 47.8 °F - 43.9 °F 86% 30.03 in 10.0 mi Variable 4.6 mph - 0.00 in   Mostly Cloudy